sat.trackr.live / text

‹ back to catalog

SKY MEXICO-1

NORAD 40664 · 2015-026B

PAYLOAD ACTIVE UNKNOWN

§ Identity

Operator
Country
MEX
Launch date
2015-05-27
Launch site
FRGUI
Launch vehicle
Mass (kg)
RCS (m²)
75.69

Purposes: comms

External: N2YO · Heavens-Above · Gunter

§ Orbital elements

Epoch: 2026-09-20T04:34:30.179712Z

Period
1,436.10 min
Inclination
0.0163°
Eccentricity
0.0002099
Mean motion
1.00271422 rev/d
Perigee alt
35,777.8 km
Apogee alt
35,795.5 km
Semi-major
42,164.8 km
B*
0.0000e+0
RAAN
223.9562°
Arg perigee
310.9517°
Mean anomaly
174.0248°
Rev number
4,140

§ Raw data

SKY MEXICO-11 40664U 15026B   26263.19062708 -.00000239  00000+0  00000+0 0  99992 40664   0.0163 223.9562 0002099 310.9517 174.0248  1.00271422 41401

JSON: /api/v1/satellites/40664 · /tle

For live sub-satellite position, see the globe view (requires WebGL).

§ Visibility from observer

Set your observer location to see the next 7 days of passes ≥ 10°. The values pass through the URL so the page stays shareable.

No JS? Fill the form by hand. The geolocation button needs JavaScript.